Mattoon, IL

4:37 PM CST on November 11, 2019 (GMT -0600)
Coles County Memorial

Weather History for KMTO - April, 2019

Change the Weather History Date:

Tuesday, April 30, 2019

  Actual Average Record
Temperature  
Mean Temperature 63 °F 58 °F  
Max Temperature 73 °F 69 °F 87 °F (2007)
Min Temperature 52 °F 49 °F 32 °F (1958)
Degree Days  
Heating Degree Days 2 7  
Month to date heating degree days 320 360  
Since 1 July heating degree days 5387 5262  
Cooling Degree Days 0 1  
Month to date cooling degree days 5 13  
Year to date cooling degree days 5 14  
Growing Degree Days 12 (Base 50)    
Moisture  
Dew Point 54 °F    
Average Humidity 84    
Maximum Humidity 100    
Minimum Humidity 68    
Precipitation  
Precipitation 0.00 in 0.17 in 1.34 in (2017)
Month to date precipitation 2.20 3.43  
Year to date precipitation 9.02 9.98  
Sea Level Pressure  
Sea Level Pressure 30.07 in    
Wind  
Wind Speed 9 mph (East)    
Max Wind Speed 17 mph    
Max Gust Speed 23 mph    
Visibility 9 miles    
Events Rain , Thunderstorm    
T = Trace of Precipitation, MM = Missing Value Source: NWS Daily Summary

Daily Weather History Graph

Daily Weather History Graph

Search for Another Location

Airport or City:

Astronomy

Apr. 30, 2019 Rise Set
Actual Time 5:55 AM CDT 7:45 PM CDT
Civil Twilight 5:26 AM CDT 8:14 PM CDT
Nautical Twilight 4:51 AM CDT 8:49 PM CDT
Astronomical Twilight 4:14 AM CDT 9:27 PM CDT
Moon 4:10 AM CDT (4/30) 3:37 PM CDT (4/30)
Length of Visible Light 14h 47m
Length of Day
13h 49m
Waning Crescent, 17% of the Moon is Illuminated
Apr 30
Waning Crescent
May 4
New
May 11
First Quarter
May 18
Full
May 26
Last Quarter

Hourly Weather History & Observations

Time (CDT) Temp. Dew Point Humidity Pressure Visibility Wind Dir Wind Speed Gust Speed Precip Events Conditions
12:53 AM 53.1 °F 50.0 °F 89% 30.11 in 10.0 mi ENE 6.9 mph - N/A   Partly Cloudy
1:53 AM 53.1 °F 50.0 °F 89% 30.13 in 10.0 mi NNE 5.8 mph - N/A   Overcast
2:53 AM 53.1 °F 50.0 °F 89% 30.11 in 10.0 mi East 5.8 mph - N/A   Overcast
3:53 AM 53.1 °F 50.0 °F 89% 30.12 in 9.0 mi ENE 8.1 mph - N/A   Mostly Cloudy
4:53 AM 53.1 °F 50.0 °F 89% 30.12 in 8.0 mi ENE 8.1 mph - N/A   Mostly Cloudy
5:53 AM 53.1 °F 48.9 °F 86% 30.11 in 10.0 mi East 8.1 mph - N/A   Overcast
6:48 AM 53.6 °F 50.0 °F 88% 30.13 in 7.0 mi ENE 8.1 mph - N/A   Mostly Cloudy
6:53 AM 53.1 °F 50.0 °F 89% 30.14 in 7.0 mi ENE 8.1 mph - N/A   Mostly Cloudy
7:46 AM 53.1 °F 50.0 °F 89% 30.17 in 7.0 mi NE 11.5 mph - N/A   Overcast
7:53 AM 53.1 °F 50.0 °F 89% 30.17 in 7.0 mi NNE 12.7 mph - N/A   Overcast
8:53 AM 53.1 °F 50.0 °F 89% 30.14 in 5.0 mi East 13.8 mph 20.7 mph 0.00 in Rain Light Rain
9:03 AM 53.1 °F 50.0 °F 89% 30.14 in 6.0 mi East 9.2 mph - 0.00 in Rain Light Rain
9:12 AM 54.0 °F 51.1 °F 90% 30.14 in 6.0 mi East 11.5 mph - 0.00 in   Overcast
9:19 AM 54.0 °F 50.0 °F 86% 30.14 in 6.0 mi East 9.2 mph - 0.00 in   Overcast
9:49 AM 55.4 °F 51.8 °F 88% 30.14 in 9.0 mi East 10.4 mph - 0.00 in   Overcast
9:53 AM 55.0 °F 51.1 °F 86% 30.14 in 9.0 mi East 11.5 mph - 0.00 in   Overcast
10:08 AM 57.0 °F 52.0 °F 83% 30.13 in 10.0 mi East 9.2 mph - N/A   Mostly Cloudy
10:20 AM 57.0 °F 51.1 °F 81% 30.14 in 10.0 mi East 10.4 mph - N/A   Mostly Cloudy
10:30 AM 57.9 °F 52.0 °F 81% 30.13 in 10.0 mi East 10.4 mph - N/A   Mostly Cloudy
10:53 AM 59.0 °F 52.0 °F 78% 30.13 in 10.0 mi East 12.7 mph - N/A   Mostly Cloudy
11:12 AM 60.1 °F 53.1 °F 78% 30.12 in 10.0 mi East 8.1 mph - N/A   Overcast
11:41 AM 60.1 °F 53.1 °F 78% 30.10 in 10.0 mi East 11.5 mph - N/A   Overcast
11:53 AM 61.0 °F 53.1 °F 75% 30.10 in 10.0 mi East 10.4 mph - N/A   Overcast
12:04 PM 61.0 °F 53.1 °F 75% 30.10 in 10.0 mi East 10.4 mph - N/A   Overcast
12:53 PM 62.1 °F 55.0 °F 78% 30.07 in 10.0 mi SE 12.7 mph - 0.00 in Rain Light Rain
1:53 PM 66.0 °F 57.0 °F 73% 30.04 in 10.0 mi SE 13.8 mph - 0.00 in   Mostly Cloudy
2:53 PM 71.1 °F 60.1 °F 68% 30.01 in 10.0 mi SSE 11.5 mph - N/A   Scattered Clouds
3:53 PM 72.0 °F 61.0 °F 68% 29.96 in 10.0 mi SE 11.5 mph - N/A   Clear
4:53 PM 70.0 °F 63.0 °F 78% 29.96 in 10.0 mi South 6.9 mph - 0.00 in Rain Light Rain
5:37 PM 69.1 °F 63.0 °F 81% 29.96 in 10.0 mi SE 5.8 mph - 0.00 in Rain , Thunderstorm Light Rain
5:53 PM 69.1 °F 63.0 °F 81% 29.99 in 10.0 mi NNW 4.6 mph - 0.00 in Thunderstorm Scattered Clouds
6:25 PM 64.9 °F 59.0 °F 81% 29.97 in 10.0 mi North 10.4 mph 18.4 mph 0.00 in   Scattered Clouds
6:53 PM 63.0 °F 59.0 °F 87% 29.97 in 8.0 mi NNE 5.8 mph - 0.00 in   Mostly Cloudy
7:26 PM 61.0 °F 59.0 °F 93% 29.96 in 5.0 mi NW 9.2 mph - 0.00 in Rain , Thunderstorm Rain
7:53 PM 60.1 °F 59.0 °F 96% 29.95 in 7.0 mi Calm Calm - N/A   Scattered Clouds
8:53 PM 60.1 °F 57.9 °F 93% 29.92 in 4.0 mi Calm Calm - N/A   Scattered Clouds
9:53 PM 63.0 °F 62.1 °F 97% 29.92 in 6.0 mi SSE 6.9 mph - N/A   Overcast
10:53 PM 66.9 °F 63.0 °F 87% 29.89 in 10.0 mi SE 11.5 mph - N/A   Clear
11:53 PM 68.0 °F 61.0 °F 78% 29.88 in 10.0 mi SSE 10.4 mph - N/A   Mostly Cloudy